| time (UTC) | temp F | wind direction | speed MPH | gust MPH | rain 1hr in | rain 24hr in | rain mn in | humidity % | barometer mb |
| 20260507163903 | 71 | 227 | 2.0 | 6.0 | 0.00 | 0.00 | 0.00 | 41 | 1025.3 |
| 20260507163603 | 71 | 221 | 3.0 | 6.0 | 0.00 | 0.00 | 0.00 | 39 | 1025.3 |
| 20260507163303 | 71 | 223 | 3.0 | 6.0 | 0.00 | 0.00 | 0.00 | 40 | 1025.2 |
| 20260507163218 | 71 | 226 | 3.0 | 6.0 | 0.00 | 0.00 | 0.00 | 39 | 1025.2 |
| 20260507162703 | 71 | 233 | 3.0 | 6.0 | 0.00 | 0.00 | 0.00 | 43 | 1025.5 |
| 20260507162403 | 71 | 239 | 3.0 | 4.0 | 0.00 | 0.00 | 0.00 | 42 | 1025.6 |
| 20260507162103 | 71 | 239 | 3.0 | 6.0 | 0.00 | 0.00 | 0.00 | 42 | 1025.5 |
| 20260507161803 | 71 | 241 | 3.0 | 6.0 | 0.00 | 0.00 | 0.00 | 39 | 1025.5 |
| 20260507161717 | 71 | 242 | 3.0 | 6.0 | 0.00 | 0.00 | 0.00 | 38 | 1025.5 |
| 20260507161203 | 71 | 241 | 3.0 | 7.0 | 0.00 | 0.00 | 0.00 | 41 | 1025.5 |
| 20260507161116 | 71 | 240 | 3.0 | 7.0 | 0.00 | 0.00 | 0.00 | 41 | 1025.5 |
| 20260507160603 | 72 | 238 | 3.0 | 7.0 | 0.00 | 0.00 | 0.00 | 41 | 1025.4 |
| 20260507160518 | 72 | 238 | 3.0 | 7.0 | 0.00 | 0.00 | 0.00 | 41 | 1025.4 |
| 20260507160004 | 72 | 234 | 3.0 | 6.0 | 0.00 | 0.00 | 0.00 | 38 | 1025.4 |
| 20260507155703 | 72 | 236 | 3.0 | 6.0 | 0.00 | 0.00 | 0.00 | 38 | 1025.5 |
| 20260507155403 | 72 | 236 | 2.0 | 4.0 | 0.00 | 0.00 | 0.00 | 38 | 1025.5 |
| 20260507155103 | 72 | 234 | 2.0 | 3.0 | 0.00 | 0.00 | 0.00 | 37 | 1025.3 |
| 20260507154803 | 72 | 232 | 2.0 | 3.0 | 0.00 | 0.00 | 0.00 | 39 | 1025.5 |
| 20260507154503 | 72 | 239 | 2.0 | 4.0 | 0.00 | 0.00 | 0.00 | 39 | 1025.5 |
| 20260507154203 | 71 | 244 | 2.0 | 6.0 | 0.00 | 0.00 | 0.00 | 40 | 1025.5 |
| 20260507153903 | 72 | 242 | 3.0 | 6.0 | 0.00 | 0.00 | 0.00 | 40 | 1025.4 |
| 20260507153603 | 71 | 237 | 3.0 | 6.0 | 0.00 | 0.00 | 0.00 | 40 | 1025.6 |
| 20260507153303 | 72 | 236 | 3.0 | 8.0 | 0.00 | 0.00 | 0.00 | 40 | 1025.7 |
| 20260507153003 | 72 | 235 | 3.0 | 8.0 | 0.00 | 0.00 | 0.00 | 40 | 1025.8 |
| 20260507152917 | 72 | 235 | 3.0 | 8.0 | 0.00 | 0.00 | 0.00 | 40 | 1026.1 |
| 20260507152403 | 72 | 238 | 4.0 | 10.0 | 0.00 | 0.00 | 0.00 | 41 | 1025.8 |
| 20260507152103 | 72 | 240 | 3.0 | 10.0 | 0.00 | 0.00 | 0.00 | 40 | 1025.9 |
| 20260507151803 | 73 | 239 | 2.0 | 8.0 | 0.00 | 0.00 | 0.00 | 39 | 1026.1 |
| 20260507151503 | 72 | 241 | 2.0 | 6.0 | 0.00 | 0.00 | 0.00 | 39 | 1025.9 |
| 20260507151203 | 72 | 243 | 2.0 | 8.0 | 0.00 | 0.00 | 0.00 | 39 | 1025.9 |
| 20260507150903 | 72 | 242 | 2.0 | 8.0 | 0.00 | 0.00 | 0.00 | 38 | 1025.9 |
| 20260507150603 | 73 | 242 | 3.0 | 8.0 | 0.00 | 0.00 | 0.00 | 38 | 1025.8 |
| 20260507150303 | 73 | 238 | 3.0 | 8.0 | 0.00 | 0.00 | 0.00 | 38 | 1026.0 |
| 20260507150003 | 73 | 234 | 3.0 | 8.0 | 0.00 | 0.00 | 0.00 | 37 | 1025.7 |
| 20260507145703 | 73 | 234 | 4.0 | 10.0 | 0.00 | 0.00 | 0.00 | 38 | 1025.7 |
| 20260507145403 | 72 | 240 | 5.0 | 10.0 | 0.00 | 0.00 | 0.00 | 38 | 1025.8 |
| 20260507145317 | 72 | 240 | 5.0 | 10.0 | 0.00 | 0.00 | 0.00 | 38 | 1025.9 |
| 20260507145017 | 72 | 241 | 6.0 | 11.0 | 0.00 | 0.00 | 0.00 | 35 | 1025.8 |
| 20260507144503 | 72 | 237 | 6.0 | 11.0 | 0.00 | 0.00 | 0.00 | 33 | 1025.7 |
| 20260507144203 | 72 | 234 | 6.0 | 13.0 | 0.00 | 0.00 | 0.00 | 33 | 1025.8 |
| 20260507143903 | 72 | 238 | 6.0 | 14.0 | 0.00 | 0.00 | 0.00 | 32 | 1025.9 |
| 20260507143603 | 72 | 240 | 6.0 | 14.0 | 0.00 | 0.00 | 0.00 | 33 | 1025.9 |
| 20260507143303 | 72 | 244 | 7.0 | 14.0 | 0.00 | 0.00 | 0.00 | 33 | 1025.7 |
| 20260507143003 | 72 | 238 | 7.0 | 13.0 | 0.00 | 0.00 | 0.00 | 33 | 1025.9 |
| 20260507142703 | 73 | 236 | 7.0 | 13.0 | 0.00 | 0.00 | 0.00 | 34 | 1025.9 |
| 20260507142403 | 73 | 234 | 7.0 | 14.0 | 0.00 | 0.00 | 0.00 | 31 | 1025.9 |
| 20260507142103 | 73 | 229 | 7.0 | 14.0 | 0.00 | 0.00 | 0.00 | 31 | 1025.7 |
| 20260507141803 | 73 | 227 | 7.0 | 14.0 | 0.00 | 0.00 | 0.00 | 28 | 1025.8 |
| 20260507141503 | 74 | 224 | 6.0 | 13.0 | 0.00 | 0.00 | 0.00 | 26 | 1025.8 |
| 20260507141418 | 74 | 221 | 6.0 | 13.0 | 0.00 | 0.00 | 0.00 | 26 | 1025.8 |
| 20260507140903 | 74 | 227 | 6.0 | 11.0 | 0.00 | 0.00 | 0.00 | 25 | 1026.0 |
| 20260507140603 | 74 | 222 | 5.0 | 11.0 | 0.00 | 0.00 | 0.00 | 28 | 1025.8 |
| 20260507140517 | 74 | 219 | 5.0 | 11.0 | 0.00 | 0.00 | 0.00 | 27 | 1025.7 |
| 20260507140217 | 74 | 226 | 5.0 | 10.0 | 0.00 | 0.00 | 0.00 | 26 | 1025.5 |
| 20260507135703 | 74 | 235 | 5.0 | 10.0 | 0.00 | 0.00 | 0.00 | 27 | 1025.1 |
| 20260507135403 | 75 | 232 | 5.0 | 13.0 | 0.00 | 0.00 | 0.00 | 27 | 1025.4 |
| 20260507135103 | 75 | 235 | 6.0 | 16.0 | 0.00 | 0.00 | 0.00 | 26 | 1025.6 |
| 20260507134803 | 74 | 237 | 6.0 | 16.0 | 0.00 | 0.00 | 0.00 | 25 | 1025.4 |
| 20260507134503 | 74 | 239 | 7.0 | 16.0 | 0.00 | 0.00 | 0.00 | 26 | 1025.3 |
| 20260507134203 | 75 | 236 | 7.0 | 16.0 | 0.00 | 0.00 | 0.00 | 25 | 1025.3 |
| 20260507133903 | 75 | 235 | 7.0 | 13.0 | 0.00 | 0.00 | 0.00 | 26 | 1025.4 |
| 20260507133603 | 74 | 239 | 6.0 | 11.0 | 0.00 | 0.00 | 0.00 | 27 | 1025.1 |
| 20260507133303 | 75 | 237 | 6.0 | 11.0 | 0.00 | 0.00 | 0.00 | 28 | 1025.3 |
| 20260507133217 | 75 | 238 | 6.0 | 11.0 | 0.00 | 0.00 | 0.00 | 28 | 1025.1 |
| 20260507132703 | 74 | 224 | 5.0 | 13.0 | 0.00 | 0.00 | 0.00 | 28 | 1025.2 |
| 20260507132403 | 74 | 232 | 6.0 | 13.0 | 0.00 | 0.00 | 0.00 | 28 | 1025.4 |
| 20260507132103 | 74 | 237 | 6.0 | 13.0 | 0.00 | 0.00 | 0.00 | 29 | 1025.5 |
| 20260507131803 | 74 | 240 | 6.0 | 13.0 | 0.00 | 0.00 | 0.00 | 29 | 1025.3 |
| 20260507131503 | 74 | 244 | 5.0 | 13.0 | 0.00 | 0.00 | 0.00 | 28 | 1025.3 |
| 20260507131417 | 74 | 244 | 5.0 | 13.0 | 0.00 | 0.00 | 0.00 | 28 | 1025.3 |
| 20260507130903 | 74 | 248 | 5.0 | 13.0 | 0.00 | 0.00 | 0.00 | 29 | 1025.5 |
| 20260507130603 | 73 | 244 | 6.0 | 13.0 | 0.00 | 0.00 | 0.00 | 30 | 1025.4 |
| 20260507130303 | 72 | 242 | 6.0 | 13.0 | 0.00 | 0.00 | 0.00 | 33 | 1025.4 |
| 20260507130003 | 72 | 244 | 6.0 | 14.0 | 0.00 | 0.00 | 0.00 | 36 | 1025.4 |
| 20260507125916 | 72 | 243 | 7.0 | 14.0 | 0.00 | 0.00 | 0.00 | 37 | 1025.3 |
| 20260507125403 | 72 | 239 | 7.0 | 14.0 | 0.00 | 0.00 | 0.00 | 39 | 1025.7 |
| 20260507125103 | 72 | 235 | 6.0 | 14.0 | 0.00 | 0.00 | 0.00 | 39 | 1025.7 |
| 20260507124803 | 72 | 231 | 6.0 | 10.0 | 0.00 | 0.00 | 0.00 | 39 | 1025.7 |
| 20260507124503 | 72 | 232 | 6.0 | 10.0 | 0.00 | 0.00 | 0.00 | 39 | 1025.6 |
| 20260507124203 | 72 | 226 | 6.0 | 11.0 | 0.00 | 0.00 | 0.00 | 40 | 1025.8 |
| 20260507123903 | 72 | 231 | 6.0 | 11.0 | 0.00 | 0.00 | 0.00 | 40 | 1025.8 |
| 20260507123817 | 72 | 232 | 6.0 | 11.0 | 0.00 | 0.00 | 0.00 | 40 | 1025.7 |
| 20260507123303 | 72 | 235 | 5.0 | 10.0 | 0.00 | 0.00 | 0.00 | 39 | 1025.9 |
| 20260507123003 | 72 | 236 | 5.0 | 10.0 | 0.00 | 0.00 | 0.00 | 39 | 1025.8 |
| 20260507122705 | 72 | 243 | 6.0 | 14.0 | 0.00 | 0.00 | 0.00 | 39 | 1025.7 |
| 20260507122403 | 72 | 248 | 5.0 | 14.0 | 0.00 | 0.00 | 0.00 | 40 | 1026.0 |
| 20260507122103 | 72 | 243 | 5.0 | 14.0 | 0.00 | 0.00 | 0.00 | 39 | 1026.0 |
| 20260507122018 | 72 | 243 | 5.0 | 14.0 | 0.00 | 0.00 | 0.00 | 39 | 1026.1 |
| 20260507121504 | 73 | 228 | 5.0 | 10.0 | 0.00 | 0.00 | 0.00 | 36 | 1026.0 |
| 20260507121203 | 73 | 229 | 5.0 | 10.0 | 0.00 | 0.00 | 0.00 | 35 | 1026.0 |
| 20260507121117 | 73 | 227 | 5.0 | 10.0 | 0.00 | 0.00 | 0.00 | 34 | 1025.9 |
| 20260507120603 | 73 | 225 | 5.0 | 9.0 | 0.00 | 0.00 | 0.00 | 40 | 1026.1 |
| 20260507120303 | 72 | 227 | 5.0 | 9.0 | 0.00 | 0.00 | 0.00 | 41 | 1026.0 |
| 20260507120003 | 72 | 232 | 5.0 | 9.0 | 0.00 | 0.00 | 0.00 | 44 | 1026.0 |
| 20260507115703 | 72 | 237 | 6.0 | 9.0 | 0.00 | 0.00 | 0.00 | 44 | 1026.1 |
| 20260507115403 | 72 | 237 | 5.0 | 9.0 | 0.00 | 0.00 | 0.00 | 49 | 1026.1 |
| 20260507115103 | 72 | 236 | 5.0 | 10.0 | 0.00 | 0.00 | 0.00 | 47 | 1026.1 |
| 20260507114803 | 72 | 229 | 5.0 | 10.0 | 0.00 | 0.00 | 0.00 | 49 | 1026.0 |
| 20260507114503 | 71 | 228 | 5.0 | 10.0 | 0.00 | 0.00 | 0.00 | 48 | 1026.0 |
| 20260507114203 | 72 | 227 | 6.0 | 10.0 | 0.00 | 0.00 | 0.00 | 48 | 1026.2 |
| 20260507113903 | 72 | 233 | 6.0 | 10.0 | 0.00 | 0.00 | 0.00 | 48 | 1026.2 |
| 20260507113816 | 72 | 233 | 6.0 | 10.0 | 0.00 | 0.00 | 0.00 | 48 | 1026.3 |
| 20260507113303 | 72 | 245 | 6.0 | 15.0 | 0.00 | 0.00 | 0.00 | 46 | 1026.1 |
| 20260507113003 | 71 | 242 | 6.0 | 15.0 | 0.00 | 0.00 | 0.00 | 47 | 1026.3 |
| 20260507112918 | 71 | 242 | 6.0 | 15.0 | 0.00 | 0.00 | 0.00 | 48 | 1025.9 |
| 20260507112618 | 71 | 234 | 6.0 | 10.0 | 0.00 | 0.00 | 0.00 | 48 | 1026.4 |
| 20260507112103 | 72 | 232 | 6.0 | 10.0 | 0.00 | 0.00 | 0.00 | 48 | 1026.3 |
| 20260507111803 | 72 | 233 | 6.0 | 13.0 | 0.00 | 0.00 | 0.00 | 45 | 1026.4 |
| 20260507111503 | 72 | 230 | 7.0 | 18.0 | 0.00 | 0.00 | 0.00 | 47 | 1026.5 |
| 20260507111203 | 72 | 234 | 8.0 | 18.0 | 0.00 | 0.00 | 0.00 | 44 | 1026.4 |
| 20260507110903 | 72 | 238 | 8.0 | 18.0 | 0.00 | 0.00 | 0.00 | 45 | 1026.5 |
| 20260507110819 | 72 | 237 | 8.0 | 18.0 | 0.00 | 0.00 | 0.00 | 44 | 1026.2 |
| 20260507110303 | 72 | 240 | 7.0 | 16.0 | 0.00 | 0.00 | 0.00 | 42 | 1026.2 |
| 20260507110003 | 72 | 238 | 8.0 | 16.0 | 0.00 | 0.00 | 0.00 | 47 | 1026.1 |
| 20260507105703 | 71 | 239 | 8.0 | 15.0 | 0.00 | 0.00 | 0.00 | 50 | 1026.1 |
| 20260507105403 | 71 | 236 | 9.0 | 15.0 | 0.00 | 0.00 | 0.00 | 52 | 1026.0 |
| 20260507105103 | 72 | 239 | 9.0 | 16.0 | 0.00 | 0.00 | 0.00 | 50 | 1026.3 |
| 20260507104803 | 72 | 236 | 9.0 | 16.0 | 0.00 | 0.00 | 0.00 | 50 | 1026.2 |
| 20260507104719 | 72 | 234 | 8.0 | 16.0 | 0.00 | 0.00 | 0.00 | 50 | 1026.3 |
| 20260507104203 | 72 | 233 | 7.0 | 15.0 | 0.00 | 0.00 | 0.00 | 51 | 1026.4 |
| 20260507103903 | 73 | 233 | 7.0 | 15.0 | 0.00 | 0.00 | 0.00 | 50 | 1026.3 |
| 20260507103603 | 73 | 237 | 6.0 | 15.0 | 0.00 | 0.00 | 0.00 | 52 | 1026.2 |
| 20260507103518 | 73 | 237 | 6.0 | 15.0 | 0.00 | 0.00 | 0.00 | 52 | 1026.1 |
| 20260507103003 | 72 | 229 | 6.0 | 13.0 | 0.00 | 0.00 | 0.00 | 53 | 1025.9 |
| 20260507102703 | 72 | 228 | 6.0 | 13.0 | 0.00 | 0.00 | 0.00 | 52 | 1025.8 |
| 20260507102617 | 72 | 227 | 6.0 | 10.0 | 0.00 | 0.00 | 0.00 | 52 | 1025.7 |
| 20260507102103 | 72 | 227 | 5.0 | 10.0 | 0.00 | 0.00 | 0.00 | 53 | 1025.6 |
| 20260507102017 | 72 | 226 | 5.0 | 10.0 | 0.00 | 0.00 | 0.00 | 53 | 1025.6 |
| 20260507101503 | 72 | 230 | 5.0 | 9.0 | 0.00 | 0.00 | 0.00 | 53 | 1025.3 |
| 20260507101203 | 72 | 234 | 5.0 | 9.0 | 0.00 | 0.00 | 0.00 | 55 | 1025.5 |
| 20260507100903 | 72 | 233 | 5.0 | 10.0 | 0.00 | 0.00 | 0.00 | 55 | 1025.8 |
| 20260507100603 | 72 | 225 | 4.0 | 10.0 | 0.00 | 0.00 | 0.00 | 54 | 1025.8 |
| 20260507100303 | 72 | 219 | 5.0 | 10.0 | 0.00 | 0.00 | 0.00 | 54 | 1025.8 |
| 20260507100217 | 71 | 221 | 5.0 | 11.0 | 0.00 | 0.00 | 0.00 | 54 | 1025.9 |
| 20260507095703 | 71 | 231 | 6.0 | 13.0 | 0.00 | 0.00 | 0.00 | 55 | 1025.9 |
| 20260507095403 | 72 | 237 | 6.0 | 13.0 | 0.00 | 0.00 | 0.00 | 54 | 1026.2 |
| 20260507095103 | 72 | 231 | 5.0 | 9.0 | 0.00 | 0.00 | 0.00 | 53 | 1026.0 |
| 20260507094803 | 72 | 229 | 5.0 | 9.0 | 0.00 | 0.00 | 0.00 | 52 | 1026.0 |
| 20260507094503 | 72 | 228 | 5.0 | 9.0 | 0.00 | 0.00 | 0.00 | 52 | 1025.9 |
| 20260507094203 | 72 | 227 | 5.0 | 9.0 | 0.00 | 0.00 | 0.00 | 50 | 1025.8 |
| 20260507093903 | 72 | 225 | 5.0 | 9.0 | 0.00 | 0.00 | 0.00 | 50 | 1025.9 |
| 20260507093603 | 72 | 208 | 4.0 | 9.0 | 0.00 | 0.00 | 0.00 | 48 | 1025.8 |
| 20260507093303 | 73 | 208 | 4.0 | 9.0 | 0.00 | 0.00 | 0.00 | 47 | 1025.8 |
| 20260507093003 | 73 | 201 | 4.0 | 8.0 | 0.00 | 0.00 | 0.00 | 45 | 1025.8 |
| 20260507092703 | 74 | 212 | 4.0 | 8.0 | 0.00 | 0.00 | 0.00 | 45 | 1025.8 |
| 20260507092403 | 74 | 228 | 4.0 | 11.0 | 0.00 | 0.00 | 0.00 | 44 | 1026.0 |
| 20260507092103 | 73 | 238 | 4.0 | 11.0 | 0.00 | 0.00 | 0.00 | 43 | 1025.7 |
| 20260507092017 | 73 | 240 | 4.0 | 11.0 | 0.00 | 0.00 | 0.00 | 42 | 1025.9 |
| 20260507091718 | 73 | 240 | 4.0 | 11.0 | 0.00 | 0.00 | 0.00 | 42 | 1025.8 |
| 20260507091203 | 73 | 237 | 4.0 | 9.0 | 0.00 | 0.00 | 0.00 | 42 | 1025.9 |
| 20260507090903 | 73 | 237 | 5.0 | 9.0 | 0.00 | 0.00 | 0.00 | 42 | 1025.9 |
| 20260507090603 | 73 | 238 | 4.0 | 9.0 | 0.00 | 0.00 | 0.00 | 39 | 1025.5 |
| 20260507090303 | 73 | 232 | 4.0 | 9.0 | 0.00 | 0.00 | 0.00 | 41 | 1025.9 |
| 20260507090217 | 73 | 229 | 4.0 | 9.0 | 0.00 | 0.00 | 0.00 | 41 | 1025.9 |
| 20260507085917 | 73 | 220 | 3.0 | 8.0 | 0.00 | 0.00 | 0.00 | 40 | 1025.7 |
| 20260507085403 | 73 | 200 | 2.0 | 6.0 | 0.00 | 0.00 | 0.00 | 40 | 1025.5 |
| 20260507085103 | 73 | 195 | 2.0 | 6.0 | 0.00 | 0.00 | 0.00 | 40 | 1025.5 |
| 20260507084803 | 72 | 201 | 3.0 | 6.0 | 0.00 | 0.00 | 0.00 | 40 | 1025.6 |
| 20260507084503 | 72 | 204 | 3.0 | 6.0 | 0.00 | 0.00 | 0.00 | 40 | 1025.9 |
| 20260507084203 | 72 | 206 | 3.0 | 6.0 | 0.00 | 0.00 | 0.00 | 40 | 1025.7 |
| 20260507083903 | 72 | 207 | 3.0 | 6.0 | 0.00 | 0.00 | 0.00 | 39 | 1026.0 |
| 20260507083603 | 72 | 197 | 3.0 | 6.0 | 0.00 | 0.00 | 0.00 | 39 | 1025.8 |
| 20260507083303 | 72 | 206 | 3.0 | 7.0 | 0.00 | 0.00 | 0.00 | 40 | 1026.0 |
| 20260507083003 | 71 | 206 | 3.0 | 7.0 | 0.00 | 0.00 | 0.00 | 40 | 1025.8 |
| 20260507082703 | 71 | 200 | 3.0 | 7.0 | 0.00 | 0.00 | 0.00 | 41 | 1025.7 |
| 20260507082403 | 72 | 216 | 4.0 | 7.0 | 0.00 | 0.00 | 0.00 | 41 | 1025.7 |
| 20260507082316 | 72 | 216 | 4.0 | 7.0 | 0.00 | 0.00 | 0.00 | 41 | 1025.8 |
| 20260507081803 | 72 | 229 | 3.0 | 7.0 | 0.00 | 0.00 | 0.00 | 42 | 1025.6 |
| 20260507081503 | 72 | 226 | 3.0 | 6.0 | 0.00 | 0.00 | 0.00 | 41 | 1025.5 |
| 20260507081203 | 71 | 226 | 3.0 | 7.0 | 0.00 | 0.00 | 0.00 | 41 | 1025.6 |
| 20260507080903 | 71 | 223 | 3.0 | 7.0 | 0.00 | 0.00 | 0.00 | 42 | 1025.4 |
| 20260507080817 | 71 | 221 | 3.0 | 7.0 | 0.00 | 0.00 | 0.00 | 42 | 1025.7 |
| 20260507080303 | 71 | 212 | 3.0 | 7.0 | 0.00 | 0.00 | 0.00 | 41 | 1025.7 |
| 20260507080003 | 72 | 211 | 3.0 | 7.0 | 0.00 | 0.00 | 0.00 | 41 | 1025.8 |
| 20260507075703 | 71 | 214 | 3.0 | 6.0 | 0.00 | 0.00 | 0.00 | 40 | 1025.8 |
| 20260507075616 | 71 | 218 | 3.0 | 6.0 | 0.00 | 0.00 | 0.00 | 40 | 1025.6 |
| 20260507075103 | 72 | 235 | 3.0 | 8.0 | 0.00 | 0.00 | 0.00 | 38 | 1025.8 |
| 20260507074803 | 70 | 240 | 3.0 | 8.0 | 0.00 | 0.00 | 0.00 | 39 | 1025.8 |
| 20260507074503 | 71 | 233 | 3.0 | 8.0 | 0.00 | 0.00 | 0.00 | 40 | 1025.8 |
| 20260507074203 | 71 | 227 | 3.0 | 8.0 | 0.00 | 0.00 | 0.00 | 40 | 1025.7 |
| 20260507074117 | 70 | 227 | 3.0 | 8.0 | 0.00 | 0.00 | 0.00 | 40 | 1025.7 |
| 20260507073603 | 69 | 234 | 3.0 | 7.0 | 0.00 | 0.00 | 0.00 | 39 | 1025.5 |
| 20260507073303 | 70 | 237 | 3.0 | 7.0 | 0.00 | 0.00 | 0.00 | 40 | 1025.5 |
| 20260507073004 | 70 | 228 | 3.0 | 7.0 | 0.00 | 0.00 | 0.00 | 40 | 1025.5 |
| 20260507072703 | 70 | 217 | 3.0 | 7.0 | 0.00 | 0.00 | 0.00 | 42 | 1025.3 |
| 20260507072403 | 70 | 206 | 3.0 | 6.0 | 0.00 | 0.00 | 0.00 | 42 | 1025.4 |
| 20260507072103 | 70 | 198 | 3.0 | 6.0 | 0.00 | 0.00 | 0.00 | 42 | 1025.3 |
| 20260507071804 | 69 | 218 | 3.0 | 8.0 | 0.00 | 0.00 | 0.00 | 42 | 1025.5 |
| 20260507071503 | 69 | 210 | 3.0 | 8.0 | 0.00 | 0.00 | 0.00 | 43 | 1025.5 |
| 20260507071203 | 69 | 205 | 3.0 | 8.0 | 0.00 | 0.00 | 0.00 | 44 | 1025.5 |
| 20260507070903 | 70 | 193 | 3.0 | 8.0 | 0.00 | 0.00 | 0.00 | 44 | 1025.6 |
| 20260507070603 | 70 | 204 | 3.0 | 6.0 | 0.00 | 0.00 | 0.00 | 44 | 1025.5 |
| 20260507070303 | 69 | 217 | 3.0 | 6.0 | 0.00 | 0.00 | 0.00 | 46 | 1025.6 |
| 20260507070007 | 69 | 220 | 3.0 | 6.0 | 0.00 | 0.00 | 0.00 | 47 | 1025.7 |
| 20260507065703 | 69 | 223 | 3.0 | 6.0 | 0.00 | 0.00 | 0.00 | 47 | 1025.7 |
| 20260507065403 | 69 | 215 | 3.0 | 6.0 | 0.00 | 0.00 | 0.00 | 46 | 1025.7 |
| 20260507065103 | 69 | 216 | 3.0 | 6.0 | 0.00 | 0.00 | 0.00 | 46 | 1025.7 |
| 20260507064803 | 70 | 221 | 2.0 | 6.0 | 0.00 | 0.00 | 0.00 | 45 | 1025.8 |
| 20260507064503 | 70 | 217 | 2.0 | 6.0 | 0.00 | 0.00 | 0.00 | 45 | 1025.7 |
| 20260507064203 | 69 | 222 | 2.0 | 6.0 | 0.00 | 0.00 | 0.00 | 46 | 1025.8 |
| 20260507063903 | 69 | 230 | 3.0 | 6.0 | 0.00 | 0.00 | 0.00 | 47 | 1025.5 |
| 20260507063603 | 69 | 237 | 3.0 | 6.0 | 0.00 | 0.00 | 0.00 | 46 | 1025.4 |
| 20260507063303 | 70 | 230 | 3.0 | 6.0 | 0.00 | 0.00 | 0.00 | 44 | 1025.5 |
| 20260507063003 | 70 | 217 | 3.0 | 6.0 | 0.00 | 0.00 | 0.00 | 44 | 1025.6 |
| 20260507062703 | 70 | 210 | 2.0 | 4.0 | 0.00 | 0.00 | 0.00 | 44 | 1025.5 |
| 20260507062403 | 69 | 207 | 2.0 | 4.0 | 0.00 | 0.00 | 0.00 | 44 | 1025.5 |
| 20260507062103 | 69 | 214 | 2.0 | 4.0 | 0.00 | 0.00 | 0.00 | 45 | 1025.5 |
| 20260507062017 | 69 | 216 | 2.0 | 4.0 | 0.00 | 0.00 | 0.00 | 45 | 1025.4 |
| 20260507061503 | 69 | 203 | 2.0 | 3.0 | 0.00 | 0.00 | 0.00 | 45 | 1025.4 |
| 20260507061417 | 69 | 197 | 1.0 | 3.0 | 0.00 | 0.00 | 0.00 | 45 | 1025.6 |
| 20260507060903 | 70 | 198 | 1.0 | 3.0 | 0.00 | 0.00 | 0.00 | 44 | 1025.4 |
| 20260507060603 | 69 | 200 | 1.0 | 3.0 | 0.00 | 0.00 | 0.00 | 45 | 1025.4 |
| 20260507060303 | 69 | 204 | 1.0 | 3.0 | 0.00 | 0.00 | 0.00 | 46 | 1025.4 |
| 20260507060003 | 69 | 167 | 1.0 | 2.0 | 0.00 | 0.00 | 0.00 | 45 | 1025.0 |
| 20260507055703 | 70 | 110 | 1.0 | 2.0 | 0.00 | 0.00 | 0.00 | 44 | 1025.0 |
| 20260507055403 | 70 | 100 | 0.0 | 1.0 | 0.00 | 0.00 | 0.00 | 44 | 1025.1 |
| 20260507055103 | 70 | 96 | 0.0 | 1.0 | 0.00 | 0.00 | 0.00 | 44 | 1025.2 |
| 20260507054803 | 69 | 93 | 0.0 | 2.0 | 0.00 | 0.00 | 0.00 | 45 | 1025.1 |
| 20260507054717 | 69 | 93 | 0.0 | 2.0 | 0.00 | 0.00 | 0.00 | 45 | 1024.9 |
| 20260507054203 | 68 | 87 | 1.0 | 2.0 | 0.00 | 0.00 | 0.00 | 47 | 1025.0 |
| 20260507053904 | 67 | 83 | 1.0 | 2.0 | 0.00 | 0.00 | 0.00 | 48 | 1025.0 |
| 20260507053603 | 67 | 75 | 2.0 | 2.0 | 0.00 | 0.00 | 0.00 | 49 | 1024.9 |
| 20260507053303 | 66 | 72 | 2.0 | 4.0 | 0.00 | 0.00 | 0.00 | 50 | 1024.8 |
| 20260507053004 | 66 | 70 | 2.0 | 4.0 | 0.00 | 0.00 | 0.00 | 50 | 1024.8 |
| 20260507052703 | 66 | 66 | 2.0 | 4.0 | 0.00 | 0.00 | 0.00 | 51 | 1024.8 |
| 20260507052403 | 66 | 68 | 2.0 | 4.0 | 0.00 | 0.00 | 0.00 | 48 | 1024.8 |
| 20260507052103 | 66 | 64 | 2.0 | 4.0 | 0.00 | 0.00 | 0.00 | 48 | 1024.7 |
| 20260507051803 | 66 | 67 | 2.0 | 4.0 | 0.00 | 0.00 | 0.00 | 47 | 1024.7 |
| 20260507051503 | 66 | 64 | 1.0 | 3.0 | 0.00 | 0.00 | 0.00 | 47 | 1024.7 |
| 20260507051203 | 65 | 63 | 2.0 | 4.0 | 0.00 | 0.00 | 0.00 | 47 | 1024.8 |
| 20260507050904 | 65 | 58 | 2.0 | 4.0 | 0.00 | 0.00 | 0.00 | 48 | 1024.6 |
| 20260507050818 | 65 | 58 | 2.0 | 4.0 | 0.00 | 0.00 | 0.00 | 48 | 1024.6 |
| 20260507050303 | 64 | 49 | 2.0 | 4.0 | 0.00 | 0.00 | 0.00 | 48 | 1024.7 |
| 20260507050218 | 64 | 48 | 2.0 | 4.0 | 0.00 | 0.00 | 0.00 | 48 | 1024.7 |
| 20260507045917 | 64 | 50 | 2.0 | 4.0 | 0.00 | 0.00 | 0.00 | 49 | 1024.9 |
| 20260507045403 | 64 | 50 | 2.0 | 4.0 | 0.00 | 0.00 | 0.00 | 48 | 1024.8 |
| 20260507045103 | 63 | 48 | 2.0 | 6.0 | 0.00 | 0.00 | 0.00 | 49 | 1024.8 |
| 20260507045017 | 63 | 47 | 2.0 | 6.0 | 0.00 | 0.00 | 0.00 | 49 | 1024.7 |
| 20260507044504 | 64 | 52 | 1.0 | 6.0 | 0.00 | 0.00 | 0.00 | 49 | 1024.8 |
| 20260507044203 | 64 | 56 | 2.0 | 6.0 | 0.00 | 0.00 | 0.00 | 49 | 1024.9 |
| 20260507043903 | 62 | 54 | 2.0 | 6.0 | 0.00 | 0.00 | 0.00 | 50 | 1024.7 |
| 20260507043603 | 62 | 55 | 3.0 | 6.0 | 0.00 | 0.00 | 0.00 | 50 | 1024.7 |
| 20260507043303 | 62 | 51 | 3.0 | 6.0 | 0.00 | 0.00 | 0.00 | 50 | 1024.7 |
| 20260507043003 | 62 | 55 | 2.0 | 6.0 | 0.00 | 0.00 | 0.00 | 50 | 1024.7 |
| 20260507042703 | 62 | 59 | 2.0 | 4.0 | 0.00 | 0.00 | 0.00 | 51 | 1024.5 |
| 20260507042617 | 62 | 58 | 2.0 | 4.0 | 0.00 | 0.00 | 0.00 | 51 | 1024.5 |
| 20260507042103 | 62 | 56 | 3.0 | 6.0 | 0.00 | 0.00 | 0.00 | 53 | 1024.7 |
| 20260507042016 | 62 | 56 | 3.0 | 6.0 | 0.00 | 0.00 | 0.00 | 52 | 1024.7 |
| 20260507041503 | 62 | 50 | 3.0 | 6.0 | 0.00 | 0.00 | 0.00 | 53 | 1024.6 |
| 20260507041203 | 62 | 51 | 2.0 | 6.0 | 0.00 | 0.00 | 0.00 | 53 | 1024.7 |
| 20260507040903 | 62 | 57 | 2.0 | 4.0 | 0.00 | 0.00 | 0.00 | 53 | 1024.8 |
| 20260507040603 | 62 | 64 | 2.0 | 4.0 | 0.00 | 0.00 | 0.00 | 53 | 1024.8 |
| 20260507040303 | 62 | 69 | 2.0 | 4.0 | 0.00 | 0.00 | 0.00 | 53 | 1024.9 |
| 20260507040003 | 62 | 73 | 1.0 | 4.0 | 0.00 | 0.00 | 0.00 | 53 | 1024.9 |
| 20260507035917 | 62 | 72 | 1.0 | 4.0 | 0.00 | 0.00 | 0.00 | 53 | 1024.9 |
| 20260507035403 | 61 | 73 | 2.0 | 4.0 | 0.00 | 0.00 | 0.00 | 53 | 1024.9 |
| 20260507035103 | 61 | 74 | 2.0 | 4.0 | 0.00 | 0.00 | 0.00 | 53 | 1024.9 |
| 20260507034803 | 61 | 71 | 2.0 | 4.0 | 0.00 | 0.00 | 0.00 | 53 | 1024.9 |
| 20260507034503 | 61 | 71 | 2.0 | 4.0 | 0.00 | 0.00 | 0.00 | 53 | 1024.9 |
| 20260507034203 | 61 | 69 | 2.0 | 4.0 | 0.00 | 0.00 | 0.00 | 54 | 1024.7 |
| 20260507033903 | 61 | 71 | 2.0 | 4.0 | 0.00 | 0.00 | 0.00 | 54 | 1024.8 |
| 20260507033603 | 61 | 69 | 1.0 | 2.0 | 0.00 | 0.00 | 0.00 | 54 | 1024.5 |
| 20260507033303 | 61 | 67 | 1.0 | 2.0 | 0.00 | 0.00 | 0.00 | 54 | 1024.7 |
| 20260507033004 | 61 | 63 | 1.0 | 2.0 | 0.00 | 0.00 | 0.00 | 54 | 1024.4 |
| 20260507032703 | 61 | 63 | 1.0 | 3.0 | 0.00 | 0.00 | 0.00 | 54 | 1024.7 |
| 20260507032403 | 61 | 66 | 1.0 | 3.0 | 0.00 | 0.00 | 0.00 | 54 | 1024.4 |
| 20260507032103 | 61 | 67 | 1.0 | 3.0 | 0.00 | 0.00 | 0.00 | 54 | 1024.6 |
| 20260507031803 | 61 | 59 | 1.0 | 3.0 | 0.00 | 0.00 | 0.00 | 54 | 1024.4 |
| 20260507031503 | 61 | 58 | 1.0 | 3.0 | 0.00 | 0.00 | 0.00 | 54 | 1024.5 |
| 20260507031203 | 61 | 58 | 2.0 | 3.0 | 0.00 | 0.00 | 0.00 | 54 | 1024.5 |
| 20260507030903 | 61 | 59 | 2.0 | 3.0 | 0.00 | 0.00 | 0.00 | 54 | 1024.7 |
| 20260507030603 | 61 | 58 | 1.0 | 2.0 | 0.00 | 0.00 | 0.00 | 54 | 1024.5 |
| 20260507030303 | 62 | 59 | 1.0 | 3.0 | 0.00 | 0.00 | 0.00 | 54 | 1024.7 |
| 20260507030003 | 62 | 64 | 1.0 | 3.0 | 0.00 | 0.00 | 0.00 | 54 | 1024.4 |
| 20260507025703 | 62 | 69 | 1.0 | 3.0 | 0.00 | 0.00 | 0.00 | 53 | 1024.5 |
| 20260507025403 | 62 | 72 | 1.0 | 3.0 | 0.00 | 0.00 | 0.00 | 53 | 1024.3 |
| 20260507025103 | 62 | 76 | 1.0 | 3.0 | 0.00 | 0.00 | 0.00 | 53 | 1024.5 |
| 20260507024803 | 62 | 78 | 1.0 | 3.0 | 0.00 | 0.00 | 0.00 | 53 | 1024.6 |
| 20260507024503 | 62 | 80 | 1.0 | 3.0 | 0.00 | 0.00 | 0.00 | 53 | 1024.4 |
| 20260507024204 | 62 | 86 | 1.0 | 2.0 | 0.00 | 0.00 | 0.00 | 53 | 1024.4 |
| 20260507023903 | 62 | 89 | 1.0 | 2.0 | 0.00 | 0.00 | 0.00 | 53 | 1024.8 |
| 20260507023604 | 62 | 89 | 1.0 | 2.0 | 0.00 | 0.00 | 0.00 | 53 | 1024.5 |
| 20260507023303 | 62 | 90 | 1.0 | 2.0 | 0.00 | 0.00 | 0.00 | 53 | 1024.3 |
| 20260507023003 | 61 | 90 | 0.0 | 1.0 | 0.00 | 0.00 | 0.00 | 53 | 1024.4 |
| 20260507022703 | 61 | 90 | 0.0 | 1.0 | 0.00 | 0.00 | 0.00 | 53 | 1024.5 |
| 20260507022403 | 62 | 91 | 0.0 | 1.0 | 0.00 | 0.00 | 0.00 | 52 | 1024.3 |
| 20260507022103 | 61 | 91 | 1.0 | 1.0 | 0.00 | 0.00 | 0.00 | 52 | 1024.5 |
| 20260507022018 | 61 | 91 | 1.0 | 1.0 | 0.00 | 0.00 | 0.00 | 52 | 1024.5 |
| 20260507021503 | 61 | 92 | 0.0 | 1.0 | 0.00 | 0.00 | 0.00 | 52 | 1024.4 |
| 20260507021203 | 61 | 92 | 0.0 | 1.0 | 0.00 | 0.00 | 0.00 | 53 | 1024.4 |
| 20260507021117 | 61 | 92 | 0.0 | 1.0 | 0.00 | 0.00 | 0.00 | 53 | 1024.5 |
| 20260507020603 | 61 | 95 | 1.0 | 2.0 | 0.00 | 0.00 | 0.00 | 52 | 1024.5 |
| 20260507020303 | 62 | 103 | 1.0 | 2.0 | 0.00 | 0.00 | 0.00 | 52 | 1024.5 |
| 20260507020216 | 62 | 105 | 1.0 | 2.0 | 0.00 | 0.00 | 0.00 | 52 | 1024.3 |
| 20260507015703 | 62 | 115 | 2.0 | 3.0 | 0.00 | 0.00 | 0.00 | 52 | 1024.4 |
| 20260507015403 | 62 | 114 | 2.0 | 3.0 | 0.00 | 0.00 | 0.00 | 52 | 1024.3 |
| 20260507015103 | 62 | 111 | 2.0 | 3.0 | 0.00 | 0.00 | 0.00 | 52 | 1024.3 |
| 20260507014803 | 62 | 113 | 2.0 | 3.0 | 0.00 | 0.00 | 0.00 | 51 | 1024.5 |
| 20260507014503 | 62 | 113 | 1.0 | 3.0 | 0.00 | 0.00 | 0.00 | 51 | 1024.3 |
| 20260507014203 | 62 | 108 | 1.0 | 3.0 | 0.00 | 0.00 | 0.00 | 50 | 1024.3 |
| 20260507013903 | 62 | 86 | 1.0 | 2.0 | 0.00 | 0.00 | 0.00 | 50 | 1024.2 |
| 20260507013603 | 63 | 67 | 1.0 | 2.0 | 0.00 | 0.00 | 0.00 | 50 | 1024.2 |
| 20260507013303 | 63 | 61 | 1.0 | 2.0 | 0.00 | 0.00 | 0.00 | 50 | 1024.1 |
| 20260507013003 | 62 | 50 | 0.0 | 1.0 | 0.00 | 0.00 | 0.00 | 50 | 1024.2 |
| 20260507012703 | 62 | 50 | 0.0 | 1.0 | 0.00 | 0.00 | 0.00 | 51 | 1024.0 |
| 20260507012403 | 62 | 49 | 0.0 | 1.0 | 0.00 | 0.00 | 0.00 | 51 | 1024.0 |
| 20260507012318 | 62 | 49 | 0.0 | 1.0 | 0.00 | 0.00 | 0.00 | 51 | 1024.0 |
| 20260507011803 | 63 | 49 | 0.0 | 1.0 | 0.00 | 0.00 | 0.00 | 49 | 1024.0 |
| 20260507011503 | 63 | 49 | 0.0 | 1.0 | 0.00 | 0.00 | 0.00 | 49 | 1023.9 |
| 20260507011417 | 63 | 49 | 0.0 | 1.0 | 0.00 | 0.00 | 0.00 | 49 | 1024.0 |
| 20260507011117 | 63 | 50 | 0.0 | 1.0 | 0.00 | 0.00 | 0.00 | 49 | 1023.9 |
| 20260507010603 | 63 | 48 | 1.0 | 2.0 | 0.00 | 0.00 | 0.00 | 49 | 1023.7 |
| 20260507010303 | 63 | 46 | 1.0 | 2.0 | 0.00 | 0.00 | 0.00 | 49 | 1023.7 |
| 20260507010003 | 63 | 42 | 1.0 | 2.0 | 0.00 | 0.00 | 0.00 | 49 | 1023.7 |
| 20260507005703 | 63 | 35 | 1.0 | 2.0 | 0.00 | 0.00 | 0.00 | 49 | 1023.7 |
| 20260507005403 | 63 | 25 | 1.0 | 2.0 | 0.00 | 0.00 | 0.00 | 49 | 1023.8 |
| 20260507005103 | 63 | 20 | 1.0 | 2.0 | 0.00 | 0.00 | 0.00 | 49 | 1023.8 |
| 20260507004803 | 63 | 16 | 1.0 | 1.0 | 0.00 | 0.00 | 0.00 | 50 | 1023.5 |
| 20260507004503 | 63 | 16 | 1.0 | 3.0 | 0.00 | 0.00 | 0.00 | 50 | 1023.7 |
| 20260507004203 | 63 | 16 | 1.0 | 3.0 | 0.00 | 0.00 | 0.00 | 50 | 1023.8 |
| 20260507003903 | 63 | 12 | 1.0 | 3.0 | 0.00 | 0.00 | 0.00 | 50 | 1023.7 |
| 20260507003603 | 63 | 19 | 1.0 | 3.0 | 0.00 | 0.00 | 0.00 | 50 | 1023.8 |
| 20260507003303 | 63 | 18 | 1.0 | 3.0 | 0.00 | 0.00 | 0.00 | 50 | 1023.5 |
| 20260507003003 | 63 | 27 | 1.0 | 3.0 | 0.00 | 0.00 | 0.00 | 50 | 1023.4 |
| 20260507002703 | 63 | 27 | 1.0 | 3.0 | 0.00 | 0.00 | 0.00 | 50 | 1023.3 |
| 20260507002403 | 63 | 44 | 1.0 | 2.0 | 0.00 | 0.00 | 0.00 | 49 | 1023.7 |
| 20260507002317 | 63 | 45 | 1.0 | 2.0 | 0.00 | 0.00 | 0.00 | 49 | 1023.3 |
| 20260507001803 | 63 | 64 | 1.0 | 2.0 | 0.00 | 0.00 | 0.00 | 49 | 1023.4 |
| 20260507001503 | 63 | 73 | 0.0 | 2.0 | 0.00 | 0.00 | 0.00 | 49 | 1023.3 |
| 20260507001204 | 63 | 76 | 1.0 | 2.0 | 0.00 | 0.00 | 0.00 | 49 | 1023.2 |
| 20260507000903 | 64 | 79 | 1.0 | 2.0 | 0.00 | 0.00 | 0.00 | 49 | 1023.7 |
| 20260507000818 | 64 | 79 | 1.0 | 2.0 | 0.00 | 0.00 | 0.00 | 49 | 1023.7 |
| 20260507000303 | 64 | 82 | 1.0 | 2.0 | 0.00 | 0.00 | 0.00 | 48 | 1023.7 |
| 20260507000219 | 64 | 82 | 1.0 | 2.0 | 0.00 | 0.00 | 0.00 | 49 | 1023.7 |
| 20260506235703 | 64 | 87 | 1.0 | 2.0 | 0.00 | 0.00 | 0.00 | 48 | 1023.8 |
| 20260506235617 | 64 | 88 | 1.0 | 2.0 | 0.00 | 0.00 | 0.00 | 48 | 1023.9 |
| 20260506235103 | 64 | 94 | 1.0 | 2.0 | 0.00 | 0.00 | 0.00 | 48 | 1023.8 |
| 20260506235017 | 64 | 94 | 1.0 | 2.0 | 0.00 | 0.00 | 0.00 | 48 | 1024.0 |
| 20260506234503 | 64 | 93 | 1.0 | 2.0 | 0.00 | 0.00 | 0.00 | 48 | 1023.9 |
| 20260506234203 | 64 | 93 | 1.0 | 2.0 | 0.00 | 0.00 | 0.00 | 48 | 1024.2 |
| 20260506233903 | 64 | 93 | 1.0 | 1.0 | 0.00 | 0.00 | 0.00 | 48 | 1024.1 |
| 20260506233603 | 64 | 93 | 1.0 | 1.0 | 0.00 | 0.00 | 0.00 | 48 | 1024.1 |
| 20260506233303 | 64 | 93 | 0.0 | 1.0 | 0.00 | 0.00 | 0.00 | 48 | 1024.3 |
| 20260506233003 | 64 | 93 | 0.0 | 1.0 | 0.00 | 0.00 | 0.00 | 48 | 1024.1 |
| 20260506232703 | 64 | 0 | 0.0 | 0.0 | 0.00 | 0.00 | 0.00 | 48 | 1024.2 |
| 20260506232617 | 64 | 0 | 0.0 | 0.0 | 0.00 | 0.00 | 0.00 | 49 | 1024.2 |
| 20260506232103 | 64 | 93 | 0.0 | 1.0 | 0.00 | 0.00 | 0.00 | 48 | 1024.4 |
| 20260506231803 | 64 | 93 | 0.0 | 1.0 | 0.00 | 0.00 | 0.00 | 48 | 1024.4 |
| 20260506231503 | 64 | 93 | 0.0 | 1.0 | 0.00 | 0.00 | 0.00 | 48 | 1024.4 |
| 20260506231203 | 64 | 93 | 0.0 | 1.0 | 0.00 | 0.00 | 0.00 | 48 | 1024.3 |
| 20260506231118 | 64 | 93 | 0.0 | 1.0 | 0.00 | 0.00 | 0.00 | 48 | 1024.3 |
| 20260506230603 | 64 | 93 | 0.0 | 1.0 | 0.00 | 0.00 | 0.00 | 48 | 1024.3 |
| 20260506230303 | 64 | 93 | 0.0 | 1.0 | 0.00 | 0.00 | 0.00 | 48 | 1024.2 |
| 20260506230003 | 65 | 100 | 0.0 | 1.0 | 0.00 | 0.00 | 0.00 | 48 | 1024.3 |
| 20260506225703 | 65 | 102 | 1.0 | 1.0 | 0.00 | 0.00 | 0.00 | 48 | 1024.3 |
| 20260506225403 | 65 | 103 | 1.0 | 2.0 | 0.00 | 0.00 | 0.00 | 48 | 1024.2 |
| 20260506225317 | 65 | 103 | 1.0 | 2.0 | 0.00 | 0.00 | 0.00 | 48 | 1024.3 |
| 20260506224803 | 65 | 101 | 1.0 | 2.0 | 0.00 | 0.00 | 0.00 | 48 | 1024.7 |
| 20260506224503 | 65 | 100 | 1.0 | 2.0 | 0.00 | 0.00 | 0.00 | 48 | 1024.2 |
| 20260506224203 | 65 | 104 | 1.0 | 2.0 | 0.00 | 0.00 | 0.00 | 48 | 1024.4 |
| 20260506223903 | 64 | 248 | 0.0 | 1.0 | 0.00 | 0.00 | 0.00 | 49 | 1024.4 |
| 20260506223603 | 64 | 0 | 0.0 | 0.0 | 0.00 | 0.00 | 0.00 | 48 | 1024.3 |
| 20260506223517 | 64 | 0 | 0.0 | 0.0 | 0.00 | 0.00 | 0.00 | 48 | 1024.3 |
| 20260506223003 | 65 | 248 | 0.0 | 1.0 | 0.00 | 0.00 | 0.00 | 47 | 1024.5 |
| 20260506222703 | 65 | 247 | 0.0 | 1.0 | 0.00 | 0.00 | 0.00 | 46 | 1024.3 |
| 20260506222403 | 65 | 244 | 0.0 | 1.0 | 0.00 | 0.00 | 0.00 | 46 | 1024.4 |
| 20260506222103 | 65 | 241 | 0.0 | 1.0 | 0.00 | 0.00 | 0.00 | 47 | 1024.3 |
| 20260506221803 | 65 | 237 | 0.0 | 1.0 | 0.00 | 0.00 | 0.00 | 46 | 1024.4 |
| 20260506221504 | 65 | 231 | 0.0 | 1.0 | 0.00 | 0.00 | 0.00 | 47 | 1024.7 |
| 20260506221203 | 65 | 223 | 0.0 | 1.0 | 0.00 | 0.00 | 0.00 | 47 | 1024.7 |
| 20260506221118 | 65 | 223 | 0.0 | 1.0 | 0.00 | 0.00 | 0.00 | 47 | 1024.6 |
| 20260506220603 | 65 | 222 | 0.0 | 1.0 | 0.00 | 0.00 | 0.00 | 47 | 1024.6 |
| 20260506220303 | 65 | 222 | 0.0 | 1.0 | 0.00 | 0.00 | 0.00 | 47 | 1024.6 |
| 20260506220003 | 65 | 222 | 0.0 | 1.0 | 0.00 | 0.00 | 0.00 | 47 | 1024.5 |
| 20260506215703 | 65 | 221 | 0.0 | 1.0 | 0.00 | 0.00 | 0.00 | 48 | 1024.7 |
| 20260506215403 | 65 | 0 | 0.0 | 0.0 | 0.00 | 0.00 | 0.00 | 49 | 1024.5 |
| 20260506215103 | 65 | 0 | 0.0 | 0.0 | 0.00 | 0.00 | 0.00 | 49 | 1024.6 |
| 20260506214803 | 65 | 0 | 0.0 | 0.0 | 0.00 | 0.00 | 0.00 | 48 | 1024.7 |
| 20260506214718 | 66 | 0 | 0.0 | 0.0 | 0.00 | 0.00 | 0.00 | 48 | 1024.7 |
| 20260506214203 | 66 | 0 | 0.0 | 0.0 | 0.00 | 0.00 | 0.00 | 48 | 1024.8 |
| 20260506213903 | 66 | 0 | 0.0 | 0.0 | 0.00 | 0.00 | 0.00 | 47 | 1024.4 |
| 20260506213817 | 66 | 0 | 0.0 | 0.0 | 0.00 | 0.00 | 0.00 | 47 | 1024.4 |
| 20260506213303 | 66 | 0 | 0.0 | 0.0 | 0.00 | 0.00 | 0.00 | 47 | 1024.6 |
| 20260506213003 | 66 | 0 | 0.0 | 0.0 | 0.00 | 0.00 | 0.00 | 47 | 1024.7 |
| 20260506212703 | 67 | 221 | 0.0 | 1.0 | 0.00 | 0.00 | 0.00 | 46 | 1024.6 |
| 20260506212403 | 67 | 221 | 0.0 | 1.0 | 0.00 | 0.00 | 0.00 | 46 | 1024.8 |
| 20260506212318 | 67 | 221 | 0.0 | 1.0 | 0.00 | 0.00 | 0.00 | 46 | 1024.8 |
| 20260506212018 | 67 | 221 | 0.0 | 1.0 | 0.00 | 0.00 | 0.00 | 45 | 1024.8 |
| 20260506211503 | 66 | 0 | 0.0 | 0.0 | 0.00 | 0.00 | 0.00 | 46 | 1024.7 |
| 20260506211203 | 66 | 0 | 0.0 | 0.0 | 0.00 | 0.00 | 0.00 | 46 | 1024.7 |
| 20260506210903 | 67 | 0 | 0.0 | 0.0 | 0.00 | 0.00 | 0.00 | 45 | 1024.9 |
| 20260506210603 | 67 | 221 | 0.0 | 1.0 | 0.00 | 0.00 | 0.00 | 45 | 1024.7 |
| 20260506210303 | 67 | 221 | 0.0 | 1.0 | 0.00 | 0.00 | 0.00 | 45 | 1024.8 |
| 20260506210014 | 67 | 221 | 0.0 | 1.0 | 0.00 | 0.00 | 0.00 | 45 | 1024.8 |
| 20260506205703 | 67 | 221 | 0.0 | 1.0 | 0.00 | 0.00 | 0.00 | 44 | 1025.0 |
| 20260506205403 | 67 | 220 | 0.0 | 1.0 | 0.00 | 0.00 | 0.00 | 45 | 1024.8 |
| 20260506205103 | 67 | 230 | 0.0 | 2.0 | 0.00 | 0.00 | 0.00 | 44 | 1024.9 |
| 20260506204803 | 67 | 230 | 0.0 | 2.0 | 0.00 | 0.00 | 0.00 | 44 | 1024.9 |
| 20260506204503 | 67 | 241 | 0.0 | 2.0 | 0.00 | 0.00 | 0.00 | 44 | 1024.7 |
| 20260506204203 | 67 | 296 | 0.0 | 2.0 | 0.00 | 0.00 | 0.00 | 45 | 1024.8 |
| 20260506203903 | 67 | 301 | 0.0 | 2.0 | 0.00 | 0.00 | 0.00 | 45 | 1025.1 |
| 20260506203817 | 67 | 301 | 0.0 | 2.0 | 0.00 | 0.00 | 0.00 | 45 | 1025.0 |
| 20260506203304 | 67 | 292 | 0.0 | 1.0 | 0.00 | 0.00 | 0.00 | 45 | 1024.8 |
| 20260506203003 | 67 | 277 | 0.0 | 1.0 | 0.00 | 0.00 | 0.00 | 44 | 1025.1 |
| 20260506202704 | 67 | 277 | 0.0 | 1.0 | 0.00 | 0.00 | 0.00 | 44 | 1025.1 |
| 20260506202403 | 67 | 274 | 0.0 | 1.0 | 0.00 | 0.00 | 0.00 | 44 | 1025.2 |
| 20260506202103 | 67 | 237 | 0.0 | 1.0 | 0.00 | 0.00 | 0.00 | 44 | 1024.9 |
| 20260506201803 | 67 | 0 | 0.0 | 0.0 | 0.00 | 0.00 | 0.00 | 44 | 1025.1 |
| 20260506201503 | 67 | 236 | 0.0 | 1.0 | 0.00 | 0.00 | 0.00 | 43 | 1024.9 |
| 20260506201203 | 67 | 239 | 0.0 | 1.0 | 0.00 | 0.00 | 0.00 | 43 | 1024.7 |
| 20260506200903 | 68 | 241 | 1.0 | 2.0 | 0.00 | 0.00 | 0.00 | 43 | 1024.8 |
| 20260506200603 | 68 | 244 | 1.0 | 2.0 | 0.00 | 0.00 | 0.00 | 42 | 1025.0 |
| 20260506200518 | 68 | 244 | 1.0 | 2.0 | 0.00 | 0.00 | 0.00 | 42 | 1025.0 |
| 20260506200003 | 68 | 248 | 0.0 | 2.0 | 0.00 | 0.00 | 0.00 | 41 | 1024.7 |
| 20260506195703 | 68 | 303 | 0.0 | 2.0 | 0.00 | 0.00 | 0.00 | 40 | 1024.8 |
| 20260506195403 | 68 | 287 | 1.0 | 2.0 | 0.00 | 0.00 | 0.00 | 39 | 1024.7 |
| 20260506195103 | 69 | 274 | 1.0 | 2.0 | 0.00 | 0.00 | 0.00 | 39 | 1024.7 |
| 20260506194803 | 69 | 255 | 1.0 | 2.0 | 0.00 | 0.00 | 0.00 | 38 | 1024.8 |
| 20260506194717 | 69 | 248 | 1.0 | 2.0 | 0.00 | 0.00 | 0.00 | 38 | 1024.7 |
| 20260506194203 | 69 | 231 | 0.0 | 2.0 | 0.00 | 0.00 | 0.00 | 38 | 1024.4 |
| 20260506193903 | 69 | 226 | 0.0 | 1.0 | 0.00 | 0.00 | 0.00 | 38 | 1024.7 |
| 20260506193603 | 69 | 225 | 0.0 | 1.0 | 0.00 | 0.00 | 0.00 | 37 | 1024.7 |
| 20260506193518 | 69 | 225 | 0.0 | 1.0 | 0.00 | 0.00 | 0.00 | 37 | 1024.7 |
| 20260506193003 | 69 | 227 | 0.0 | 1.0 | 0.00 | 0.00 | 0.00 | 37 | 1024.6 |
| 20260506192703 | 69 | 228 | 0.0 | 1.0 | 0.00 | 0.00 | 0.00 | 37 | 1024.5 |
| 20260506192618 | 69 | 228 | 0.0 | 1.0 | 0.00 | 0.00 | 0.00 | 37 | 1024.5 |
| 20260506192103 | 69 | 236 | 0.0 | 2.0 | 0.00 | 0.00 | 0.00 | 37 | 1024.4 |
| 20260506191803 | 69 | 252 | 0.0 | 2.0 | 0.00 | 0.00 | 0.00 | 37 | 1024.0 |
| 20260506191717 | 69 | 255 | 0.0 | 2.0 | 0.00 | 0.00 | 0.00 | 38 | 1024.4 |
| 20260506191203 | 69 | 293 | 0.0 | 1.0 | 0.00 | 0.00 | 0.00 | 37 | 1024.3 |
| 20260506190903 | 69 | 303 | 0.0 | 1.0 | 0.00 | 0.00 | 0.00 | 37 | 1024.2 |
| 20260506190604 | 69 | 309 | 0.0 | 1.0 | 0.00 | 0.00 | 0.00 | 37 | 1024.3 |
| 20260506190306 | 69 | 312 | 0.0 | 1.0 | 0.00 | 0.00 | 0.00 | 37 | 1024.1 |
| 20260506190004 | 69 | 312 | 0.0 | 1.0 | 0.00 | 0.00 | 0.00 | 37 | 1024.0 |
| 20260506185703 | 69 | 312 | 0.0 | 1.0 | 0.00 | 0.00 | 0.00 | 38 | 1024.0 |
| 20260506185403 | 69 | 313 | 0.0 | 1.0 | 0.00 | 0.00 | 0.00 | 37 | 1024.1 |
| 20260506185103 | 69 | 314 | 0.0 | 1.0 | 0.00 | 0.00 | 0.00 | 37 | 1023.9 |
| 20260506184803 | 69 | 315 | 0.0 | 1.0 | 0.00 | 0.00 | 0.00 | 37 | 1024.1 |
| 20260506184503 | 69 | 316 | 0.0 | 1.0 | 0.00 | 0.00 | 0.00 | 37 | 1024.0 |
| 20260506184203 | 70 | 316 | 0.0 | 1.0 | 0.00 | 0.00 | 0.00 | 37 | 1023.9 |
| 20260506183903 | 70 | 316 | 0.0 | 1.0 | 0.00 | 0.00 | 0.00 | 37 | 1023.9 |
| 20260506183604 | 70 | 316 | 0.0 | 2.0 | 0.00 | 0.00 | 0.00 | 37 | 1023.9 |
| 20260506183518 | 70 | 317 | 0.0 | 2.0 | 0.00 | 0.00 | 0.00 | 37 | 1023.9 |
| 20260506183218 | 70 | 317 | 0.0 | 2.0 | 0.00 | 0.00 | 0.00 | 37 | 1023.9 |
| 20260506182703 | 70 | 315 | 0.0 | 2.0 | 0.00 | 0.00 | 0.00 | 38 | 1023.8 |
| 20260506182403 | 70 | 316 | 0.0 | 2.0 | 0.00 | 0.00 | 0.00 | 38 | 1023.9 |
| 20260506182103 | 70 | 311 | 1.0 | 2.0 | 0.00 | 0.00 | 0.00 | 37 | 1023.7 |
| 20260506181803 | 70 | 301 | 0.0 | 2.0 | 0.00 | 0.00 | 0.00 | 37 | 1023.7 |
| 20260506181719 | 70 | 299 | 0.0 | 2.0 | 0.00 | 0.00 | 0.00 | 37 | 1023.5 |
| 20260506181203 | 70 | 252 | 0.0 | 3.0 | 0.00 | 0.00 | 0.00 | 37 | 1023.7 |
| 20260506180903 | 70 | 246 | 1.0 | 3.0 | 0.00 | 0.00 | 0.00 | 37 | 1023.7 |
| 20260506180603 | 70 | 247 | 1.0 | 3.0 | 0.00 | 0.00 | 0.00 | 36 | 1023.7 |
| 20260506180303 | 70 | 249 | 1.0 | 3.0 | 0.00 | 0.00 | 0.00 | 36 | 1023.4 |
| 20260506180004 | 70 | 256 | 0.0 | 1.0 | 0.00 | 0.00 | 0.00 | 37 | 1023.7 |
| 20260506175703 | 70 | 284 | 1.0 | 3.0 | 0.00 | 0.00 | 0.00 | 37 | 1023.5 |
| 20260506175403 | 70 | 276 | 1.0 | 3.0 | 0.00 | 0.00 | 0.00 | 37 | 1023.5 |
| 20260506175103 | 71 | 275 | 1.0 | 3.0 | 0.00 | 0.00 | 0.00 | 37 | 1023.7 |
| 20260506175019 | 71 | 276 | 1.0 | 3.0 | 0.00 | 0.00 | 0.00 | 37 | 1023.5 |
| 20260506174503 | 71 | 236 | 0.0 | 1.0 | 0.00 | 0.00 | 0.00 | 37 | 1023.3 |
| 20260506174418 | 71 | 237 | 1.0 | 2.0 | 0.00 | 0.00 | 0.00 | 37 | 1023.3 |
| 20260506173903 | 71 | 238 | 1.0 | 3.0 | 0.00 | 0.00 | 0.00 | 37 | 1023.5 |
| 20260506173603 | 71 | 237 | 1.0 | 4.0 | 0.00 | 0.00 | 0.00 | 37 | 1023.2 |
| 20260506173517 | 71 | 237 | 1.0 | 4.0 | 0.00 | 0.00 | 0.00 | 37 | 1023.1 |
| 20260506173217 | 71 | 231 | 1.0 | 4.0 | 0.00 | 0.00 | 0.00 | 37 | 1023.3 |
| 20260506172917 | 71 | 232 | 1.0 | 4.0 | 0.00 | 0.00 | 0.00 | 37 | 1023.2 |
| 20260506172403 | 71 | 234 | 1.0 | 4.0 | 0.00 | 0.00 | 0.00 | 37 | 1023.2 |
| 20260506172103 | 71 | 238 | 1.0 | 6.0 | 0.00 | 0.00 | 0.00 | 37 | 1023.5 |
| 20260506171803 | 71 | 239 | 1.0 | 6.0 | 0.00 | 0.00 | 0.00 | 37 | 1023.3 |
| 20260506171718 | 71 | 240 | 2.0 | 6.0 | 0.00 | 0.00 | 0.00 | 37 | 1023.3 |
| 20260506171203 | 71 | 240 | 2.0 | 4.0 | 0.00 | 0.00 | 0.00 | 37 | 1023.3 |
| 20260506170903 | 71 | 239 | 2.0 | 4.0 | 0.00 | 0.00 | 0.00 | 37 | 1023.1 |
| 20260506170603 | 71 | 239 | 2.0 | 4.0 | 0.00 | 0.00 | 0.00 | 37 | 1023.1 |
| 20260506170303 | 72 | 238 | 2.0 | 6.0 | 0.00 | 0.00 | 0.00 | 37 | 1023.2 |
| 20260506170003 | 72 | 239 | 2.0 | 6.0 | 0.00 | 0.00 | 0.00 | 37 | 1023.3 |
| 20260506165703 | 72 | 237 | 2.0 | 6.0 | 0.00 | 0.00 | 0.00 | 36 | 1023.2 |
| 20260506165617 | 72 | 236 | 2.0 | 6.0 | 0.00 | 0.00 | 0.00 | 36 | 1023.3 |
| 20260506165103 | 72 | 237 | 2.0 | 4.0 | 0.00 | 0.00 | 0.00 | 36 | 1023.3 |
| 20260506164804 | 72 | 242 | 3.0 | 6.0 | 0.00 | 0.00 | 0.00 | 36 | 1023.1 |
| 20260506164503 | 72 | 240 | 3.0 | 6.0 | 0.00 | 0.00 | 0.00 | 36 | 1023.4 |
| 20260506164203 | 72 | 240 | 3.0 | 8.0 | 0.00 | 0.00 | 0.00 | 35 | 1023.0 |